QPF
0.00 0.00 0.00 0.00 0.00 0.00 0.00 0.00 0.00 0.00 0.00 0.00 0.00 0.00 0.00 0.00 0.00 0.00 0.00 0.00 0.00 0.00 0.00 0.00 0.01 0.00 0.01 0.01 0.00 0.00 0.00 0.00 0.01 0.01 0.01 0.01 0.02 0.02 0.03 0.04 0.05 0.06 0.11 0.14
0.00 0.00 0.00 0.00 0.00 0.00 0.00 0.00 0.00 0.00 0.00 0.00 0.00 0.00 0.00 0.00 0.00 0.00 0.00 0.00 0.00 0.00 0.00 0.00 0.00 0.00 0.00 0.00 0.00 0.01 0.01 0.01 0.01 0.02 0.04 0.04 0.04 0.04 0.05 0.06 0.08 0.12 0.18 0.24
0.00 0.00 0.00 0.00 0.00 0.00 0.00 0.00 0.00 0.00 0.00 0.00 0.00 0.00 0.00 0.00 0.00 0.00 0.00 0.00 0.00 0.00 0.00 0.00 0.00 0.00 0.01 0.01 0.00 0.01 0.01 0.02 0.04 0.06 0.08 0.09 0.08 0.07 0.08 0.11 0.14 0.18 0.22 0.28
0.00 0.00 0.00 0.00 0.00 0.00 0.00 0.00 0.00 0.00 0.00 0.00 0.00 0.00 0.01 0.00 0.00 0.00 0.00 0.00 0.00 0.00 0.00 0.00 0.00 0.00 0.01 0.01 0.01 0.01 0.02 0.03 0.05 0.07 0.09 0.10 0.11 0.13 0.17 0.24 0.30 0.34 0.36 0.37
0.00 0.00 0.00 0.00 0.00 0.00 0.00 0.00 0.00 0.00 0.00 0.00 0.00 0.00 0.01 0.01 0.01 0.01 0.01 0.01 0.01 0.01 0.01 0.00 0.00 0.01 0.01 0.02 0.02 0.03 0.05 0.06 0.09 0.10 0.12 0.13 0.14 0.20 0.28 0.37 0.41 0.39 0.34 0.28
0.00 0.00 0.00 0.00 0.00 0.00 0.00 0.00 0.00 0.00 0.00 0.00 0.00 0.01 0.02 0.03 0.02 0.02 0.02 0.02 0.03 0.02 0.02 0.02 0.01 0.01 0.02 0.02 0.02 0.04 0.07 0.10 0.10 0.11 0.12 0.14 0.21 0.29 0.35 0.36 0.36 0.30 0.25 0.20
0.00 0.00 0.00 0.00 0.00 0.00 0.00 0.00 0.00 0.00 0.00 0.00 0.01 0.02 0.04 0.04 0.03 0.02 0.02 0.03 0.04 0.03 0.03 0.04 0.04 0.03 0.04 0.05 0.06 0.07 0.09 0.12 0.11 0.12 0.14 0.19 0.25 0.32 0.37 0.38 0.35 0.31 0.26 0.20
0.00 0.00 0.00 0.00 0.00 0.00 0.00 0.00 0.00 0.00 0.00 0.00 0.02 0.03 0.05 0.04 0.02 0.02 0.02 0.03 0.03 0.04 0.04 0.04 0.04 0.04 0.04 0.05 0.06 0.07 0.10 0.12 0.11 0.14 0.15 0.20 0.26 0.34 0.39 0.40 0.38 0.34 0.28 0.22
0.00 0.00 0.00 0.00 0.00 0.00 0.00 0.00 0.00 0.00 0.00 0.01 0.03 0.04 0.06 0.05 0.03 0.02 0.02 0.02 0.03 0.03 0.03 0.04 0.03 0.03 0.04 0.05 0.06 0.08 0.11 0.13 0.14 0.17 0.19 0.23 0.29 0.34 0.37 0.36 0.31 0.26 0.24 0.20
0.01 0.01 0.00 0.00 0.00 0.00 0.00 0.00 0.00 0.00 0.00 0.01 0.02 0.04 0.06 0.06 0.03 0.02 0.01 0.02 0.02 0.03 0.03 0.04 0.04 0.03 0.04 0.04 0.05 0.08 0.12 0.14 0.16 0.17 0.18 0.19 0.21 0.23 0.24 0.24 0.22 0.16 0.14 0.12
0.01 0.01 0.01 0.00 0.00 0.00 0.00 0.00 0.00 0.00 0.00 0.01 0.02 0.04 0.06 0.07 0.04 0.02 0.01 0.02 0.02 0.02 0.02 0.03 0.03 0.03 0.03 0.02 0.03 0.04 0.07 0.09 0.10 0.11 0.12 0.12 0.13 0.15 0.15 0.16 0.16 0.13 0.11 0.10
0.01 0.02 0.02 0.01 0.00 0.00 0.00 0.00 0.00 0.00 0.00 0.00 0.02 0.03 0.04 0.06 0.06 0.03 0.02 0.01 0.01 0.02 0.02 0.02 0.02 0.02 0.02 0.02 0.02 0.02 0.03 0.04 0.05 0.06 0.07 0.09 0.09 0.11 0.11 0.11 0.11 0.10 0.10 0.10
0.01 0.02 0.03 0.03 0.02 0.01 0.00 0.00 0.00 0.00 0.00 0.00 0.01 0.02 0.03 0.04 0.04 0.03 0.02 0.01 0.01 0.01 0.01 0.01 0.01 0.01 0.02 0.02 0.02 0.03 0.03 0.03 0.04 0.05 0.07 0.09 0.09 0.10 0.10 0.12 0.13 0.13 0.12 0.13
0.01 0.02 0.02 0.03 0.03 0.01 0.01 0.00 0.00 0.00 0.00 0.01 0.02 0.02 0.03 0.03 0.03 0.02 0.02 0.01 0.01 0.01 0.01 0.01 0.01 0.02 0.02 0.02 0.03 0.04 0.05 0.05 0.05 0.06 0.08 0.08 0.09 0.11 0.11 0.11 0.11 0.11 0.12 0.13
0.01 0.02 0.02 0.02 0.01 0.01 0.02 0.01 0.01 0.01 0.01 0.02 0.03 0.03 0.05 0.06 0.05 0.04 0.03 0.02 0.02 0.02 0.02 0.02 0.02 0.02 0.03 0.04 0.04 0.05 0.06 0.07 0.08 0.09 0.11 0.11 0.11 0.11 0.12 0.12 0.12 0.11 0.10 0.10
0.00 0.01 0.02 0.03 0.02 0.02 0.02 0.01 0.01 0.01 0.01 0.02 0.03 0.03 0.06 0.08 0.06 0.06 0.05 0.05 0.04 0.03 0.03 0.02 0.03 0.03 0.04 0.05 0.05 0.06 0.06 0.07 0.09 0.11 0.14 0.14 0.14 0.14 0.13 0.12 0.10 0.09 0.07 0.06
0.00 0.01 0.02 0.03 0.02 0.03 0.03 0.01 0.01 0.01 0.02 0.04 0.06 0.06 0.05 0.07 0.08 0.08 0.07 0.06 0.06 0.05 0.05 0.04 0.04 0.04 0.05 0.05 0.06 0.06 0.06 0.08 0.10 0.12 0.14 0.15 0.13 0.12 0.10 0.08 0.06 0.04 0.03 0.02
0.00 0.00 0.01 0.01 0.02 0.03 0.03 0.01 0.01 0.02 0.02 0.03 0.04 0.05 0.07 0.08 0.09 0.09 0.09 0.09 0.09 0.08 0.07 0.05 0.04 0.04 0.05 0.05 0.05 0.06 0.06 0.07 0.06 0.07 0.07 0.06 0.06 0.05 0.04 0.03 0.02 0.01 0.01 0.01
0.00 0.00 0.00 0.01 0.01 0.01 0.02 0.01 0.01 0.04 0.04 0.02 0.04 0.06 0.06 0.06 0.07 0.09 0.10 0.11 0.11 0.10 0.08 0.06 0.06 0.05 0.05 0.05 0.05 0.05 0.05 0.05 0.04 0.03 0.03 0.02 0.02 0.01 0.01 0.01 0.01 0.01 0.00 0.00
0.00 0.00 0.00 0.00 0.01 0.01 0.02 0.01 0.01 0.04 0.05 0.04 0.07 0.10 0.13 0.13 0.11 0.12 0.12 0.10 0.10 0.10 0.09 0.07 0.06 0.06 0.05 0.05 0.05 0.04 0.03 0.02 0.02 0.02 0.01 0.01 0.01 0.01 0.00 0.00 0.00 0.00 0.01 0.01
0.00 0.00 0.00 0.00 0.00 0.01 0.00 0.00 0.02 0.05 0.06 0.04 0.05 0.07 0.11 0.16 0.14 0.10 0.09 0.09 0.09 0.09 0.09 0.07 0.05 0.04 0.04 0.03 0.02 0.02 0.01 0.01 0.01 0.00 0.00 0.01 0.00 0.00 0.00 0.00 0.01 0.01 0.01 0.01
0.00 0.00 0.00 0.00 0.00 0.00 0.00 0.00 0.02 0.02 0.01 0.02 0.03 0.05 0.08 0.10 0.11 0.08 0.07 0.06 0.07 0.07 0.06 0.04 0.03 0.02 0.02 0.01 0.01 0.01 0.01 0.00 0.00 0.00 0.00 0.01 0.00 0.00 0.00 0.01 0.01 0.00 0.01 0.01
0.00 0.00 0.00 0.00 0.00 0.00 0.00 0.00 0.00 0.00 0.00 0.01 0.01 0.01 0.03 0.05 0.05 0.05 0.04 0.04 0.04 0.03 0.03 0.02 0.01 0.01 0.01 0.01 0.01 0.01 0.01 0.00 0.00 0.00 0.00 0.00 0.00 0.00 0.00 0.01 0.01 0.01 0.01 0.01
0.00 0.00 0.00 0.00 0.00 0.00 0.00 0.00 0.00 0.00 0.00 0.00 0.00 0.00 0.00 0.01 0.01 0.02 0.02 0.02 0.01 0.01 0.01 0.01 0.01 0.01 0.01 0.01 0.01 0.01 0.01 0.01 0.01 0.00 0.00 0.00 0.00 0.01 0.01 0.01 0.01 0.01 0.02 0.02
0.00 0.00 0.00 0.00 0.00 0.00 0.00 0.00 0.00 0.00 0.00 0.00 0.00 0.00 0.00 0.00 0.00 0.01 0.01 0.01 0.01 0.01 0.01 0.01 0.01 0.01 0.01 0.01 0.01 0.01 0.01 0.01 0.01 0.01 0.00 0.00 0.00 0.01 0.01 0.01 0.01 0.01 0.01 0.01
0.00 0.00 0.00 0.00 0.00 0.00 0.00 0.00 0.00 0.00 0.00 0.00 0.00 0.00 0.00 0.00 0.00 0.00 0.01 0.01 0.01 0.00 0.00 0.01 0.01 0.01 0.00 0.00 0.00 0.01 0.01 0.01 0.01 0.01 0.01 0.00 0.00 0.01 0.01 0.01 0.01 0.00 0.00 0.00
MSLP
1012.30 1012.52 1012.61 1012.58 1012.43 1012.18 1011.88 1011.54 1011.20 1010.86 1010.52 1010.16 1009.78 1009.37 1008.94 1008.50 1008.08 1007.71 1007.43 1007.25 1007.20 1007.28 1007.50 1007.83 1008.27 1008.79 1009.37 1009.99 1010.64 1011.28 1011.91 1012.50 1013.02 1013.47 1013.84 1014.13 1014.38 1014.59 1014.81 1015.06 1015.37 1015.75 1016.19 1016.67
1012.22 1012.39 1012.44 1012.38 1012.21 1011.98 1011.70 1011.40 1011.11 1010.84 1010.57 1010.31 1010.03 1009.74 1009.44 1009.12 1008.81 1008.54 1008.31 1008.16 1008.09 1008.12 1008.23 1008.43 1008.72 1009.08 1009.51 1009.99 1010.52 1011.09 1011.66 1012.22 1012.73 1013.19 1013.58 1013.90 1014.16 1014.40 1014.63 1014.89 1015.20 1015.58 1016.03 1016.52
1012.01 1012.13 1012.15 1012.08 1011.92 1011.72 1011.49 1011.26 1011.06 1010.90 1010.75 1010.63 1010.51 1010.38 1010.24 1010.08 1009.92 1009.76 1009.62 1009.51 1009.42 1009.38 1009.38 1009.43 1009.54 1009.70 1009.94 1010.24 1010.60 1011.03 1011.49 1011.98 1012.45 1012.88 1013.28 1013.61 1013.90 1014.16 1014.41 1014.69 1015.02 1015.41 1015.85 1016.34
1011.72 1011.79 1011.78 1011.70 1011.56 1011.40 1011.24 1011.11 1011.03 1011.00 1011.01 1011.05 1011.11 1011.17 1011.23 1011.26 1011.26 1011.24 1011.19 1011.12 1011.04 1010.94 1010.84 1010.74 1010.66 1010.62 1010.64 1010.74 1010.91 1011.16 1011.48 1011.85 1012.24 1012.63 1013.00 1013.33 1013.64 1013.93 1014.21 1014.52 1014.87 1015.27 1015.72 1016.19
1011.39 1011.42 1011.38 1011.29 1011.16 1011.04 1010.95 1010.92 1010.95 1011.06 1011.23 1011.46 1011.71 1011.98 1012.23 1012.45 1012.63 1012.75 1012.81 1012.81 1012.74 1012.60 1012.42 1012.20 1011.96 1011.75 1011.57 1011.47 1011.44 1011.51 1011.67 1011.91 1012.20 1012.51 1012.84 1013.17 1013.48 1013.79 1014.11 1014.45 1014.83 1015.24 1015.69 1016.15
1011.10 1011.07 1010.99 1010.88 1010.75 1010.66 1010.62 1010.65 1010.79 1011.02 1011.35 1011.74 1012.18 1012.64 1013.08 1013.49 1013.84 1014.11 1014.28 1014.35 1014.31 1014.18 1013.95 1013.65 1013.31 1012.96 1012.64 1012.38 1012.19 1012.10 1012.11 1012.22 1012.40 1012.63 1012.91 1013.21 1013.52 1013.85 1014.20 1014.57 1014.97 1015.39 1015.84 1016.30
1010.89 1010.80 1010.67 1010.51 1010.37 1010.27 1010.24 1010.32 1010.53 1010.85 1011.29 1011.83 1012.42 1013.05 1013.67 1014.24 1014.75 1015.15 1015.43 1015.59 1015.61 1015.50 1015.28 1014.96 1014.58 1014.17 1013.77 1013.41 1013.12 1012.92 1012.82 1012.81 1012.89 1013.05 1013.27 1013.54 1013.84 1014.18 1014.55 1014.94 1015.36 1015.80 1016.26 1016.71
1010.79 1010.64 1010.45 1010.24 1010.06 1009.92 1009.88 1009.96 1010.19 1010.57 1011.09 1011.72 1012.44 1013.20 1013.95 1014.67 1015.30 1015.83 1016.22 1016.47 1016.56 1016.52 1016.34 1016.06 1015.71 1015.31 1014.90 1014.52 1014.19 1013.94 1013.77 1013.69 1013.71 1013.80 1013.97 1014.20 1014.49 1014.83 1015.21 1015.62 1016.06 1016.52 1016.97 1017.42
1010.82 1010.61 1010.36 1010.10 1009.86 1009.67 1009.59 1009.64 1009.86 1010.25 1010.80 1011.49 1012.29 1013.14 1014.00 1014.83 1015.57 1016.19 1016.68 1017.02 1017.20 1017.24 1017.14 1016.94 1016.67 1016.34 1016.00 1015.67 1015.37 1015.12 1014.95 1014.84 1014.82 1014.88 1015.01 1015.21 1015.48 1015.81 1016.20 1016.62 1017.07 1017.53 1017.99 1018.43
1010.94 1010.70 1010.42 1010.11 1009.81 1009.57 1009.43 1009.44 1009.62 1009.99 1010.55 1011.27 1012.11 1013.03 1013.96 1014.86 1015.68 1016.39 1016.95 1017.36 1017.63 1017.76 1017.76 1017.66 1017.50 1017.29 1017.05 1016.82 1016.61 1016.42 1016.28 1016.20 1016.17 1016.22 1016.33 1016.51 1016.77 1017.08 1017.46 1017.89 1018.34 1018.80 1019.26 1019.69
1011.13 1010.89 1010.60 1010.27 1009.95 1009.66 1009.48 1009.44 1009.58 1009.93 1010.47 1011.20 1012.06 1013.01 1014.00 1014.95 1015.83 1016.58 1017.20 1017.68 1018.01 1018.21 1018.30 1018.31 1018.26 1018.18 1018.07 1017.96 1017.86 1017.77 1017.71 1017.67 1017.68 1017.73 1017.84 1018.01 1018.25 1018.55 1018.92 1019.33 1019.77 1020.22 1020.66 1021.08
1011.35 1011.15 1010.89 1010.58 1010.26 1009.97 1009.76 1009.69 1009.81 1010.13 1010.66 1011.38 1012.26 1013.23 1014.24 1015.23 1016.14 1016.94 1017.59 1018.10 1018.47 1018.72 1018.88 1018.97 1019.02 1019.05 1019.06 1019.07 1019.09 1019.11 1019.13 1019.16 1019.21 1019.29 1019.40 1019.57 1019.79 1020.08 1020.42 1020.80 1021.22 1021.65 1022.06 1022.44
1011.57 1011.45 1011.26 1011.01 1010.73 1010.47 1010.28 1010.21 1010.31 1010.63 1011.15 1011.87 1012.75 1013.74 1014.77 1015.78 1016.71 1017.52 1018.19 1018.71 1019.10 1019.37 1019.56 1019.70 1019.81 1019.91 1020.01 1020.12 1020.24 1020.35 1020.46 1020.56 1020.66 1020.76 1020.89 1021.05 1021.26 1021.52 1021.82 1022.17 1022.55 1022.93 1023.31 1023.65
1011.79 1011.77 1011.68 1011.52 1011.32 1011.12 1010.97 1010.93 1011.05 1011.36 1011.89 1012.61 1013.50 1014.50 1015.54 1016.56 1017.50 1018.32 1018.99 1019.51 1019.89 1020.15 1020.34 1020.48 1020.61 1020.75 1020.90 1021.07 1021.25 1021.44 1021.61 1021.77 1021.92 1022.06 1022.20 1022.35 1022.53 1022.75 1023.01 1023.31 1023.63 1023.95 1024.27 1024.56
1012.00 1012.09 1012.11 1012.07 1011.97 1011.85 1011.76 1011.77 1011.92 1012.25 1012.78 1013.51 1014.40 1015.40 1016.45 1017.48 1018.43 1019.24 1019.91 1020.41 1020.76 1021.00 1021.16 1021.28 1021.40 1021.53 1021.69 1021.89 1022.11 1022.33 1022.55 1022.76 1022.94 1023.09 1023.24 1023.38 1023.53 1023.71 1023.91 1024.13 1024.38 1024.63 1024.88 1025.10
1012.20 1012.40 1012.53 1012.60 1012.60 1012.58 1012.57 1012.63 1012.81 1013.17 1013.71 1014.43 1015.32 1016.32 1017.37 1018.40 1019.34 1020.16 1020.81 1021.30 1021.63 1021.84 1021.96 1022.04 1022.12 1022.22 1022.36 1022.55 1022.77 1023.01 1023.25 1023.48 1023.68 1023.85 1023.99 1024.12 1024.23 1024.35 1024.48 1024.63 1024.79 1024.96 1025.13 1025.29
1012.41 1012.68 1012.92 1013.08 1013.19 1013.25 1013.31 1013.42 1013.63 1014.00 1014.54 1015.25 1016.13 1017.11 1018.15 1019.18 1020.12 1020.93 1021.59 1022.06 1022.38 1022.56 1022.64 1022.68 1022.72 1022.78 1022.89 1023.05 1023.25 1023.49 1023.74 1023.97 1024.18 1024.35 1024.48 1024.58 1024.65 1024.71 1024.77 1024.84 1024.91 1025.00 1025.10 1025.19
1012.61 1012.95 1013.25 1013.50 1013.67 1013.80 1013.92 1014.07 1014.30 1014.67 1015.20 1015.89 1016.74 1017.70 1018.72 1019.73 1020.67 1021.49 1022.14 1022.62 1022.93 1023.11 1023.18 1023.19 1023.19 1023.21 1023.29 1023.41 1023.60 1023.81 1024.05 1024.28 1024.48 1024.64 1024.76 1024.83 1024.86 1024.86 1024.85 1024.84 1024.84 1024.85 1024.88 1024.92
1012.79 1013.17 1013.52 1013.82 1014.05 1014.23 1014.38 1014.56 1014.80 1015.16 1015.67 1016.33 1017.15 1018.07 1019.06 1020.06 1020.99 1021.80 1022.47 1022.96 1023.29 1023.47 1023.54 1023.55 1023.54 1023.54 1023.59 1023.69 1023.84 1024.04 1024.26 1024.48 1024.67 1024.81 1024.91 1024.95 1024.95 1024.90 1024.84 1024.77 1024.71 1024.66 1024.64 1024.64
1012.95 1013.35 1013.73 1014.05 1014.32 1014.54 1014.72 1014.91 1015.16 1015.52 1016.00 1016.63 1017.40 1018.28 1019.24 1020.20 1021.12 1021.94 1022.61 1023.13 1023.48 1023.69 1023.79 1023.81 1023.80 1023.80 1023.84 1023.92 1024.05 1024.23 1024.43 1024.62 1024.80 1024.93 1025.01 1025.03 1024.99 1024.92 1024.82 1024.71 1024.61 1024.53 1024.49 1024.48
1013.07 1013.47 1013.86 1014.21 1014.51 1014.75 1014.96 1015.18 1015.44 1015.79 1016.25 1016.85 1017.58 1018.42 1019.33 1020.27 1021.16 1021.98 1022.66 1023.20 1023.58 1023.83 1023.95 1024.00 1024.02 1024.03 1024.06 1024.14 1024.26 1024.41 1024.59 1024.77 1024.92 1025.03 1025.09 1025.10 1025.05 1024.96 1024.85 1024.73 1024.63 1024.55 1024.52 1024.52
1013.13 1013.54 1013.93 1014.30 1014.62 1014.90 1015.15 1015.40 1015.69 1016.04 1016.51 1017.08 1017.78 1018.58 1019.45 1020.35 1021.21 1022.01 1022.69 1023.24 1023.65 1023.92 1024.08 1024.17 1024.21 1024.24 1024.28 1024.36 1024.47 1024.60 1024.76 1024.91 1025.04 1025.13 1025.18 1025.18 1025.13 1025.05 1024.95 1024.85 1024.77 1024.73 1024.72 1024.77
1013.14 1013.54 1013.95 1014.34 1014.70 1015.02 1015.32 1015.62 1015.95 1016.34 1016.82 1017.39 1018.07 1018.84 1019.66 1020.51 1021.34 1022.10 1022.76 1023.31 1023.72 1024.02 1024.21 1024.32 1024.39 1024.44 1024.49 1024.57 1024.67 1024.79 1024.92 1025.04 1025.15 1025.22 1025.26 1025.26 1025.22 1025.16 1025.10 1025.04 1025.01 1025.02 1025.08 1025.17
1013.09 1013.50 1013.93 1014.35 1014.75 1015.13 1015.50 1015.87 1016.26 1016.70 1017.21 1017.79 1018.46 1019.20 1019.98 1020.78 1021.55 1022.27 1022.90 1023.42 1023.82 1024.12 1024.33 1024.46 1024.55 1024.61 1024.67 1024.75 1024.83 1024.93 1025.04 1025.13 1025.22 1025.27 1025.30 1025.30 1025.28 1025.26 1025.24 1025.24 1025.28 1025.36 1025.48 1025.64
1013.02 1013.44 1013.88 1014.33 1014.79 1015.24 1015.68 1016.13 1016.60 1017.10 1017.66 1018.27 1018.94 1019.66 1020.40 1021.14 1021.85 1022.51 1023.08 1023.56 1023.94 1024.22 1024.42 1024.56 1024.66 1024.73 1024.80 1024.87 1024.94 1025.02 1025.10 1025.16 1025.22 1025.25 1025.27 1025.28 1025.28 1025.29 1025.32 1025.39 1025.50 1025.65 1025.84 1026.06
1012.93 1013.35 1013.81 1014.31 1014.82 1015.34 1015.87 1016.40 1016.95 1017.53 1018.14 1018.78 1019.46 1020.15 1020.85 1021.54 1022.18 1022.77 1023.28 1023.70 1024.04 1024.30 1024.48 1024.61 1024.71 1024.79 1024.85 1024.91 1024.97 1025.03 1025.08 1025.12 1025.15 1025.16 1025.17 1025.17 1025.19 1025.24 1025.32 1025.45 1025.62 1025.84 1026.09 1026.35
Thickness
5662 5661 5665 5674 5678 5685 5686 5689 5694 5705 5719 5722 5725 5729 5738 5749 5756 5760 5765 5771 5774 5776 5780 5781 5780 5780 5777 5773 5769 5765 5763 5760 5756 5753 5750 5747 5745 5744 5744 5742 5739 5734 5730 5726
5653 5657 5671 5676 5677 5676 5679 5682 5691 5703 5714 5717 5719 5722 5730 5737 5740 5745 5751 5757 5762 5765 5767 5770 5772 5773 5772 5769 5767 5764 5761 5759 5756 5754 5751 5748 5745 5743 5742 5739 5734 5729 5725 5720
5653 5666 5671 5667 5667 5668 5675 5681 5691 5696 5707 5715 5715 5712 5719 5724 5731 5734 5740 5744 5749 5752 5754 5758 5760 5763 5764 5763 5763 5762 5760 5758 5756 5753 5748 5744 5739 5737 5734 5731 5728 5724 5720 5715
5657 5667 5663 5662 5666 5670 5673 5688 5691 5693 5697 5707 5712 5707 5708 5713 5715 5718 5722 5728 5733 5737 5742 5746 5750 5752 5754 5757 5758 5757 5755 5754 5752 5748 5744 5740 5735 5731 5730 5724 5720 5717 5714 5709
5656 5662 5661 5661 5670 5675 5681 5693 5692 5694 5697 5701 5710 5712 5701 5710 5702 5702 5707 5712 5717 5723 5728 5732 5737 5742 5745 5748 5750 5751 5750 5748 5747 5744 5741 5736 5732 5728 5724 5718 5713 5710 5706 5702
5662 5669 5669 5671 5678 5681 5686 5686 5688 5693 5699 5688 5702 5706 5690 5696 5694 5693 5695 5698 5703 5709 5714 5718 5724 5729 5733 5737 5740 5742 5741 5740 5740 5738 5736 5732 5728 5721 5715 5709 5705 5702 5697 5691
5655 5665 5672 5675 5671 5676 5679 5675 5674 5677 5681 5690 5701 5698 5678 5682 5688 5687 5686 5686 5690 5695 5698 5702 5707 5712 5717 5722 5726 5729 5729 5728 5728 5729 5726 5723 5720 5714 5708 5702 5697 5692 5686 5681
5651 5657 5669 5673 5672 5675 5677 5682 5681 5681 5686 5692 5693 5684 5672 5677 5679 5680 5680 5680 5680 5682 5684 5687 5691 5696 5701 5705 5710 5712 5714 5714 5715 5716 5713 5710 5707 5703 5697 5692 5686 5680 5674 5670
5651 5656 5671 5674 5678 5680 5677 5684 5701 5692 5695 5691 5683 5672 5666 5672 5672 5673 5672 5671 5670 5671 5674 5676 5679 5682 5685 5689 5691 5694 5697 5698 5699 5698 5697 5694 5690 5687 5682 5676 5671 5665 5660 5655
5654 5651 5667 5672 5678 5679 5687 5691 5686 5687 5680 5678 5673 5673 5669 5665 5665 5665 5664 5661 5660 5661 5663 5665 5667 5669 5671 5673 5676 5678 5680 5680 5679 5679 5678 5675 5672 5667 5663 5658 5652 5647 5643 5637
5654 5649 5659 5667 5667 5673 5676 5680 5686 5692 5694 5687 5671 5669 5677 5671 5666 5660 5655 5652 5652 5651 5651 5652 5654 5656 5658 5659 5661 5661 5662 5662 5661 5659 5657 5655 5651 5646 5642 5637 5632 5628 5623 5618
5656 5655 5656 5662 5671 5678 5679 5681 5682 5678 5678 5686 5687 5658 5669 5667 5661 5653 5646 5642 5641 5640 5639 5640 5642 5644 5645 5645 5644 5644 5644 5644 5642 5639 5637 5634 5629 5625 5620 5615 5611 5607 5602 5598
5655 5651 5647 5650 5659 5671 5672 5674 5679 5682 5682 5681 5678 5652 5657 5653 5646 5641 5635 5631 5629 5628 5627 5628 5628 5628 5628 5627 5627 5626 5625 5624 5621 5619 5616 5611 5607 5603 5598 5594 5589 5585 5582 5578
5654 5652 5649 5646 5650 5663 5662 5667 5673 5677 5679 5676 5674 5651 5643 5638 5632 5627 5623 5620 5617 5615 5613 5613 5612 5610 5609 5608 5607 5605 5604 5603 5601 5599 5595 5590 5585 5581 5577 5573 5569 5565 5561 5558
5656 5650 5650 5653 5656 5658 5657 5658 5663 5665 5667 5668 5660 5648 5636 5630 5623 5617 5613 5609 5605 5602 5599 5597 5596 5594 5592 5590 5588 5587 5585 5583 5581 5579 5575 5570 5565 5562 5557 5553 5549 5546 5543 5539
5654 5647 5648 5644 5650 5652 5646 5648 5649 5648 5651 5650 5643 5627 5624 5619 5612 5606 5601 5597 5592 5588 5585 5583 5580 5577 5575 5573 5572 5570 5568 5566 5564 5561 5557 5553 5549 5545 5540 5536 5532 5530 5526 5524
5654 5647 5644 5641 5644 5645 5631 5633 5636 5634 5634 5633 5626 5616 5610 5603 5598 5593 5589 5585 5579 5574 5571 5568 5565 5563 5560 5558 5557 5555 5552 5551 5548 5545 5542 5538 5534 5530 5525 5522 5519 5517 5514 5511
5650 5647 5647 5644 5637 5623 5622 5633 5631 5625 5619 5620 5613 5604 5598 5588 5583 5579 5576 5572 5567 5562 5558 5555 5552 5549 5547 5545 5543 5541 5539 5537 5535 5532 5529 5526 5523 5519 5515 5511 5508 5505 5502 5499
5652 5647 5645 5642 5635 5624 5621 5625 5624 5617 5605 5604 5596 5587 5581 5577 5571 5562 5560 5558 5554 5551 5546 5542 5540 5538 5536 5533 5531 5530 5528 5526 5524 5521 5517 5514 5511 5508 5504 5500 5497 5493 5490 5486
5651 5649 5645 5637 5628 5618 5617 5621 5622 5614 5595 5593 5587 5579 5575 5573 5566 5552 5547 5545 5541 5538 5535 5532 5530 5528 5526 5523 5523 5521 5518 5516 5513 5509 5506 5503 5500 5498 5494 5490 5486 5482 5479 5475
5646 5642 5638 5633 5626 5620 5616 5616 5615 5600 5592 5590 5583 5577 5573 5568 5561 5547 5540 5535 5532 5529 5526 5524 5522 5520 5518 5516 5514 5512 5510 5506 5503 5500 5498 5494 5491 5487 5484 5480 5476 5472 5469 5464
5644 5639 5632 5630 5622 5611 5611 5612 5605 5594 5592 5586 5578 5572 5565 5557 5547 5539 5533 5528 5524 5521 5518 5516 5514 5512 5509 5508 5507 5504 5501 5497 5495 5492 5489 5486 5483 5481 5476 5471 5467 5463 5459 5456
5643 5638 5636 5626 5616 5607 5605 5601 5596 5594 5586 5580 5573 5565 5557 5548 5539 5533 5527 5522 5519 5516 5513 5511 5509 5505 5503 5501 5500 5496 5492 5491 5488 5486 5483 5479 5476 5472 5468 5465 5461 5457 5453 5449
5637 5635 5631 5620 5610 5605 5601 5597 5593 5589 5582 5576 5569 5561 5553 5543 5535 5528 5522 5518 5515 5513 5510 5507 5504 5501 5497 5495 5492 5490 5487 5485 5483 5480 5477 5474 5471 5468 5463 5458 5456 5451 5446 5441
5642 5634 5629 5619 5608 5601 5596 5592 5587 5581 5575 5568 5561 5555 5547 5539 5531 5526 5521 5517 5513 5509 5505 5503 5500 5496 5493 5490 5487 5485 5482 5480 5478 5475 5473 5470 5468 5465 5458 5454 5447 5442 5435 5428
5645 5638 5631 5625 5615 5608 5595 5589 5583 5575 5568 5561 5554 5547 5542 5536 5530 5524 5519 5514 5510 5506 5502 5499 5496 5492 5489 5486 5483 5481 5478 5476 5474 5472 5470 5469 5465 5461 5457 5452 5443 5430 5425 5419